Weather History for Cape Girardeau, MO

Change the Weather History Date:

Monday, March 11, 2013

  Actual Average Record
Temperature  
Mean Temperature 40 °F 46 °F  
Max Temperature 49 °F 56 °F 82 °F (1967)
Min Temperature 31 °F 35 °F 16 °F (1998)
Degree Days  
Heating Degree Days 25 20  
Month to date heating degree days 268 233  
Since 1 July heating degree days 3507 3730  
Cooling Degree Days 0 0  
Month to date cooling degree days 0 0  
Year to date cooling degree days 0 0  
Moisture  
Dew Point 34 °F    
Average Humidity 80    
Maximum Humidity 89    
Minimum Humidity 70    
Precipitation  
Precipitation 0.00 in 0.13 in 1.44 in (1977)
Month to date precipitation 0.36 1.40  
Year to date precipitation 6.98 8.28  
Sea Level Pressure  
Sea Level Pressure 29.86 in    
Wind  
Wind Speed 11 mph (West)    
Max Wind Speed 20 mph    
Max Gust Speed 24 mph    
Visibility 10 miles    
Events      
T = Trace of Precipitation, MM = Missing Value Source: NWS Daily Summary

Daily Weather History Graph

Daily Weather History Graph

Search for Another Location

Airport:

Trip Planner

Search our weather history database for the weather conditions in past years. The results will help you decide how hot, cold, wet, or windy it might be!

Date:

Astronomy

Mar. 11, 2013 Rise Set
Actual Time 7:14 AM CDT 7:02 PM CDT
Civil Twilight 6:48 AM CDT 7:28 PM CDT
Nautical Twilight 6:18 AM CDT 7:58 PM CDT
Astronomical Twilight 5:48 AM CDT 8:28 PM CDT
Moon 6:49 AM CDT (3/11) 7:12 PM CDT (3/11)
Length of Visible Light 12h 39m
Length of Day
11h 47m
Waning Crescent, 0% of the Moon is Illuminated
Mar 11
Waning Crescent
Mar 11
New
Mar 19
First Quarter
Mar 27
Full
Apr 2
Last Quarter

Hourly Weather History & Observations

Time (CDT) Temp. Windchill Dew Point Humidity Pressure Visibility Wind Dir Wind Speed Gust Speed Precip Events Conditions
12:36 AM 48.2 °F - 44.6 °F 87% 29.77 in 10.0 mi SW 5.8 mph - N/A   Overcast
12:53 AM 48.9 °F - 44.1 °F 83% 29.77 in 10.0 mi SW 9.2 mph - N/A   Overcast
1:53 AM 48.0 °F - 44.1 °F 86% 29.77 in 10.0 mi SW 8.1 mph - N/A   Overcast
2:53 AM 45.0 °F 39.7 °F 41.0 °F 86% 29.76 in 10.0 mi WSW 10.4 mph - N/A   Partly Cloudy
3:53 AM 44.1 °F 37.4 °F 39.0 °F 82% 29.76 in 10.0 mi WSW 13.8 mph - N/A   Mostly Cloudy
4:53 AM 43.0 °F 37.2 °F 37.9 °F 82% 29.77 in 10.0 mi WSW 10.4 mph - N/A   Mostly Cloudy
5:08 AM 42.8 °F 37.0 °F 39.2 °F 87% 29.78 in 10.0 mi WSW 10.4 mph - N/A   Overcast
5:53 AM 43.0 °F 36.0 °F 37.9 °F 82% 29.78 in 10.0 mi West 13.8 mph - N/A   Overcast
6:53 AM 41.0 °F 33.5 °F 36.0 °F 82% 29.79 in 10.0 mi WSW 13.8 mph - N/A   Overcast
7:53 AM 39.0 °F 31.4 °F 34.0 °F 82% 29.81 in 10.0 mi West 12.7 mph - N/A   Overcast
8:53 AM 37.9 °F 28.9 °F 33.1 °F 83% 29.82 in 10.0 mi West 16.1 mph - N/A   Overcast
9:53 AM 37.0 °F 28.1 °F 33.1 °F 86% 29.85 in 10.0 mi WSW 15.0 mph - N/A   Overcast
10:33 AM 37.4 °F 28.9 °F 33.8 °F 87% 29.85 in 10.0 mi West 13.8 mph - N/A   Overcast
10:53 AM 39.0 °F 29.6 °F 32.0 °F 76% 29.84 in 10.0 mi West 18.4 mph - N/A   Overcast
11:53 AM 37.9 °F 29.6 °F 30.0 °F 73% 29.86 in 10.0 mi WSW 13.8 mph - N/A   Overcast
12:53 PM 39.0 °F 29.9 °F 30.0 °F 70% 29.87 in 10.0 mi West 17.3 mph - N/A   Overcast
1:53 PM 37.9 °F 29.6 °F 30.9 °F 76% 29.87 in 10.0 mi West 13.8 mph - N/A   Overcast
2:53 PM 39.0 °F 31.0 °F 30.9 °F 73% 29.87 in 10.0 mi West 13.8 mph - N/A   Overcast
3:11 PM 39.2 °F 31.6 °F 30.2 °F 70% 29.86 in 10.0 mi WNW 12.7 mph 19.6 mph N/A   Overcast
3:34 PM 39.2 °F 32.0 °F 30.2 °F 70% 29.87 in 10.0 mi West 11.5 mph - N/A   Overcast
3:53 PM 39.0 °F 31.0 °F 30.0 °F 70% 29.88 in 10.0 mi West 13.8 mph - N/A   Overcast
4:27 PM 39.2 °F 31.2 °F 30.2 °F 70% 29.89 in 10.0 mi West 13.8 mph - N/A   Overcast
4:53 PM 39.9 °F 32.5 °F 30.0 °F 68% 29.90 in 10.0 mi West 12.7 mph - N/A   Overcast
5:53 PM 39.0 °F 32.8 °F 30.0 °F 70% 29.92 in 10.0 mi West 9.2 mph - N/A   Overcast
6:53 PM 37.9 °F 30.5 °F 28.9 °F 70% 29.94 in 10.0 mi WNW 11.5 mph - N/A   Overcast
7:53 PM 37.9 °F 32.7 °F 28.9 °F 70% 29.96 in 10.0 mi West 6.9 mph - N/A   Overcast
8:53 PM 37.9 °F 34.4 °F 32.0 °F 79% 29.99 in 10.0 mi West 4.6 mph - N/A   Overcast
9:53 PM 37.9 °F 34.4 °F 32.0 °F 79% 30.01 in 10.0 mi West 4.6 mph - N/A   Overcast
10:53 PM 35.1 °F 32.2 °F 30.0 °F 82% 30.02 in 10.0 mi West 3.5 mph - N/A   Clear
11:53 PM 32.0 °F 28.7 °F 28.0 °F 85% 30.03 in 10.0 mi WSW 3.5 mph - N/A   Clear